STARLINK-11601, 63110

Orbit data source: Space-Track

STARLINK-11601, 63110 is a payload satellite owned by SpaceX/Seattle (US) in LEO that was launched on Thu, 27 Feb 2025 UTC via an FALCON 9 launch vehicle from the Air Force Eastern Test Range (AFETR). Payload-class satellites include a variety of spacecraft equipped with specific instruments for various scientific and technological missions. These include communications satellites like Starlink; space stations such as the ISS; scientific satellites like the Hubble; Earth observation satellites from companies like Planet Labs, Umbra, and HawkEye 360; GPS; miniature CubeSats for education and research; and military/defense satellites.

Loading next visibility...
Identifier
63110, 2025-039G
Orbit
LEO
Last TLE update
8 hours ago
Origin
Manufacturer
SpaceX/Seattle
Mission
Operational Commercial Communications
Bus & Motor
STARLINK V2M, Unknown motor
Mass
730 kg wet, ~700 kg dry
Launch date (UTC)
2025-02-27 (4 months ago)
Launch vehicle
FALCON 9
Launch site
Air Force Eastern Test Range (AFETR)
Object type
Payload
Rocket body
Debris
Shape & HBR
Box + 2 Pan, 29 m
Radar Cross Section
36.964 m², Large (>1 m²)

Expand to show TLE details & history

TLE from 8 hours ago
0 STARLINK-11601
1 63110U 25039G   25182.07890950  .00235853  00000-0  17800-2 0  9990
2 63110  42.9990 313.4719 0001771 297.0273  63.0414 15.70971889 20757
Epoch: 2025-07-01T01:53Z
TLE epoch observation values (Epoch: 2025-07-01T01:53:37.78Z)
Latitude
-0.00002°
Longitude
5.68495°
Altitude
355.349 km
Speed
7.698 km/s
True Right ascension
20h 53m 53s
True Declination
0° 00' 00"
Sunlit
Object was in full shadow at epoch
Visualization orbit readout
Latitude
40.09002°
Longitude
67.54506°
Altitude
358.922 km
Speed
7.699 km/s
Apparent Right ascension
05h 02m 35s
Apparent Declination
3° 06' 29"
Sunlit
Object is in daylight
Visualization observer readout
Local Sidereal Time
21:27:33
Azimuth
71.844° E
Elevation
-15.887°
Doppler factor
1
Orbital elements
Apogee altitude
359.293 km
Perigee altitude
356.907 km
Semi-major axis
6,736.237 km
Eccentricity
0.00018
Inclination
42.999°
RAAN
313.4719°
Arg. of periapsis
297.0273°
True anomaly
Unknown
Mean anomaly
63.0414°
Eccentric anomaly
Unknown
Mean motion
3.9257 °/min
Orbital period
91.7 mins
BSTAR
0.00178
Loading maneuver chart data...
Loading SW <> Apogee altitude chart data...
Loading historical data...
Loading historical data...
Loading historical data...
Loading historical data...
Loading historical data...
Loading historical data...
Loading historical data...

STARLINK-11601 Visibility forecast

Observer location: undefined°, undefined°

Span
Click to sort rows by Start time (UTC) header in descending order
Start Az.
Max El. time (UTC)
Max El. Az.
Max El.
End time (UTC)
End Az.
4 mins2025-07-01 12:49:12.755Z231.913° WSW2025-07-01 12:51:12.755Z131.671° SE39.93°2025-07-01 12:53:12.755Z79.129° E
4 mins2025-07-01 16:02:12.755Z304.384° NW2025-07-01 16:03:12.755Z346.692° N38.727°2025-07-01 16:06:12.755Z90.772° ESE
|